Regional Weather Roundup
Issued by NWS

Home | Current Version | Previous Version | Text Only | Print | Product List | Glossary On
Versions: 1 2 3 4 5 6 7 8 9 10 11 12 13 14 15 16 17 18 19 20 21 22 23 24 25 26 27 28 29 30 31 32 33 34 35 36 37 38 39 40 41 42 43 44 45 46 47 48 49 50
000
ASUS46 KPQR 290910
RWROR

OREGON REGIONAL WEATHER ROUNDUP
NATIONAL WEATHER SERVICE PORTLAND OR
200 AM PDT WED JUL 29 2015

NOTE: "FAIR" INDICATES FEW OR NO CLOUDS BELOW 12,000 FEET WITH
NO SIGNIFICANT WEATHER AND/OR OBSTRUCTIONS TO VISIBILITY.

ORZ001>013-291000-
NORTHWEST OREGON


CITY           SKY/WX    TMP DP  RH WIND       PRES   REMARKS
ASTORIA        CLEAR     57  55  93 W3        30.16F
NEWPORT        CLEAR     54  52  94 CALM      30.13S FOG
PORTLAND       CLEAR     68  52  56 CALM      30.12S
VANCOUVER WA   CLEAR     68  48  48 CALM      30.12S
SCAPPOOSE      CLEAR     71  49  45 NW8       30.12S
HILLSBORO      CLEAR     63  50  62 SE3       30.12S
AURORA         CLEAR     64  49  57 CALM      30.12F
MCMINNVILLE    CLEAR     71  48  43 N10       30.12F
SALEM          CLEAR     68  50  52 NW6       30.10F
CORVALLIS      CLEAR     72  46  40 N5        30.11S
EUGENE         CLEAR     65  48  54 NE12      30.09S
$$

ORZ021-028-291000-
SOUTHWEST OREGON


CITY           SKY/WX    TMP DP  RH WIND       PRES   REMARKS
NORTH BEND     CLEAR     55  54  94 CALM      30.07S
BROOKINGS      CLEAR     87  48  25 NE12G17   29.91F
ROSEBURG       CLEAR     68  48  48 CALM      30.06S
SEXTON SUMMIT  CLEAR     65  43  44 NE12      30.17S
MEDFORD        CLEAR     69  48  47 CALM      30.06R
$$

ORZ014>016-041-291000-
COLUMBIA GORGE


CITY           SKY/WX    TMP DP  RH WIND       PRES   REMARKS
TROUTDALE      CLEAR     63  55  75 E3        30.11S
THE DALLES     CLEAR     63  43  48 CALM      30.12S
$$

ORZ029>031-041-044-049-050-061>064-502-503-505>511-291000-
EASTERN OREGON


CITY           SKY/WX    TMP DP  RH WIND       PRES   REMARKS
REDMOND        CLEAR     52  34  50 CALM      30.23S
BEND           CLEAR     59  34  38 W5        30.25S
PRINEVILLE     CLEAR     50  28  43 CALM      30.23S
KLAMATH FALLS  CLEAR     60  41  49 VRB6      30.21R
LAKEVIEW       CLEAR     52  27  37 NW7       30.24F
HERMISTON      CLEAR     57  40  52 SE5       30.13S
PENDLETON      CLEAR     61  38  42 SE10      30.16S
JOHN DAY       CLEAR     59  32  36 CALM      30.25F
MEACHAM        CLEAR     42  36  79 CALM      30.26F
LA GRANDE      CLEAR     54  30  40 CALM      30.22S
BAKER CITY     CLEAR     44  39  82 CALM      30.25S
BURNS          CLEAR     44  27  51 CALM      30.27S
ROME             N/A     52  22  30 E3        30.25S
ONTARIO        CLEAR     54  39  57 SW3       30.20S
$$


USA.gov is the U.S. government's official web portal to all federal, state and local government web resources and services.